Location: Lecco
(45.8566°N, 9.3977°E)
Time: 04:06:32
(UTC+02:00)

Transit 4A - Pass Details

Date: 22 August 2020
Orbit: 863 x 982 km, 66.8° (Epoch: 23 September)

Event Time Altitude Azimuth Distance (km) Brightness Sun altitude
Rises 12:56:33 0° 319° (NW) 3,623 10.7 55.1°
Reaches altitude 10° 13:01:30 10° 354° (N) 2,705 10.1 55.3°
Maximum altitude 13:03:18 11° 11° (N) 2,628 10.1 55.4°
Drops below altitude 10° 13:05:06 10° 27° (NNE) 2,721 10.2 55.4°
Sets 13:10:09 0° 61° (ENE) 3,684 10.9 55.5°
